Regional Weather Roundup
Issued by NWS

Home | Current Version | Previous Version | Graphics & Text | Print | Product List | Glossary On
Versions: 1 2 3 4 5 6 7 8 9 10 11 12 13 14 15 16 17 18 19 20 21 22 23 24 25 26 27 28 29 30 31 32 33 34 35 36 37 38 39 40 41 42 43 44 45 46 47 48 49 50
000
ASUS45 KBOU 311207
RWRCO

WEATHER ROUNDUP FOR COLORADO
NATIONAL WEATHER SERVICE DENVER/BOULDER CO
600 AM MDT MON AUG 31 2015

NOTE: "FAIR" INDICATES FEW OR NO CLOUDS BELOW 12000 FEET WITH NO
SIGNIFICANT WEATHER AND/OR OBSTRUCTIONS TO VISIBILITY.

COZ001>005-013-030-031-311300-
...NORTHWEST COLORADO...

CITY           SKY/WX    TMP DP  RH WIND       PRES   REMARKS
CRAIG          CLOUDY    59  49  69 CALM      30.21S
HAYDEN         NOT AVBL
MEEKER         NOT AVBL
MOUNT WERNER   NOT AVBL
STEAMBOAT SPGS CLOUDY    50  49  97 E6        30.25S
WALDEN         CLOUDY    50  45  81 SE3       30.31S
$$

COZ006>008-011-311300-
...WEST CENTRAL VALLEYS...

CITY           SKY/WX    TMP DP  RH WIND       PRES   REMARKS
GRAND JUNCTION CLOUDY    62  58  86 E8        30.12R
MONTROSE       MOCLDY    58  55  90 SE3       30.20S
EAGLE          CLOUDY    55  55 100 CALM      30.27S
RIFLE          LGT RAIN  60  56  86 E6        30.18S
DELTA          RAIN      62  57  85 CALM      30.16S
NUCLA          MOCLDY    63  50  63 SE3       30.22R
$$

COZ017>023-064>068-311300-
...SOUTHWEST COLORADO...

CITY           SKY/WX    TMP DP  RH WIND       PRES   REMARKS
DURANGO        MOCLDY    54  47  77 E3        30.25R
CORTEZ         CLEAR     56  50  80 CALM      30.21R
PAGOSA SPRINGS MOCLDY    52  45  77 CALM      30.31R
TELLURIDE      CLOUDY    54  46  73 SE5       30.41R
WOLF CREEK PAS MOCLDY    43  41  93 SW15      30.59R
$$

COZ009-010-012-014-032>034-037-058>063-311300-
...CENTRAL COLORADO...

CITY           SKY/WX    TMP DP  RH WIND       PRES   REMARKS
ASPEN          MOCLDY    54  50  86 SW5       30.30F
BUENA VISTA    PTCLDY    58  44  58 N13       30.28S
COPPER MTN     MOCLDY    46  36  66 W13G20    30.55S
BERTHOUD PASS  CLOUDY    41  30  65 W23G36    30.57S
COTTONWOOD PAS NOT AVBL
GUNNISON       MOCLDY    52  45  76 CALM      30.33S
KREMMLING      PTCLDY    52  46  82 CALM      30.30R
LEADVILLE      CLOUDY    47  46  97 NE7       30.41F
MONARCH PASS   MOCLDY    43  37  81 W24       30.64S
SALIDA         PTCLDY    61  44  52 NW5       30.33R
SUNLIGHT       CLOUDY    46  45  93 CALM      30.50S
WILKERSON PASS CLOUDY    50  36  57 W13G18    30.51S
$$

COZ069>075-311300-
...SAN LUIS VALLEY/SANGRE DE CRISTO MOUNTAINS...

CITY           SKY/WX    TMP DP  RH WIND       PRES   REMARKS
ALAMOSA        MOCLDY    52  43  71 CALM      30.27R
LA VETA PASS   PTCLDY    50  39  66 S12G21    30.42R
SAGUACHE       NOT AVBL
$$

COZ035-036-038>040-311300-
...NORTHERN COLORADO FRONT RANGE...

CITY           SKY/WX    TMP DP  RH WIND       PRES   REMARKS
DENVER INTL AP MOCLDY    68  45  43 CALM      30.05R
DMNS CITY PARK   N/A     66  50  55 E10       30.04S
AURORA         MOCLDY    65  46  51 S5        30.07R
FRONT RANGE AP NOT AVBL
ERIE MUNI ARPT CLOUDY    72  44  36 CALM      30.02R
BOULDER MUN AP CLOUDY    73  45  35 NW5       30.02F
CENTENNIAL     MOCLDY    66  47  50 S7        30.08R
BROOMFIELD     MOCLDY    73  45  35 CALM      30.07R
FORT COLLINS   CLOUDY    72  46  40 N7        30.03R
LONGMONT       CLOUDY    71  51  49 W5        30.03S
$$

COZ041-046-047-076>085-087-088-311300-
...PIKES PEAK/PALMER DIVIDE AND SOUTHERN FOOTHILLS...

CITY           SKY/WX    TMP DP  RH WIND       PRES   REMARKS
COLO. SPRINGS  PTCLDY    68  44  42 CALM      30.10R
A. F. ACADEMY  PTCLDY    62  41  46 N9        30.12R
ELLICOTT       NOT AVBL
FALCON         PTCLDY    64  41  42 MISG      30.15R
FORT CARSON    PTCLDY    58  48  71 SW3       30.07R
LIMON          PTCLDY    48  46  93 CALM      30.04R
MONUMENT HILL  PTCLDY    50  41  71 CALM      30.18R
TRINIDAD       CLEAR     66  47  50 W14       30.07R
$$

COZ042>045-048>051-090-091-311300-
...NORTHEAST COLORADO...

CITY           SKY/WX    TMP DP  RH WIND       PRES   REMARKS
GREELEY ARPT   CLOUDY    64  54  68 SE5       30.02R
AKRON          MOCLDY    63  49  60 W7        29.99R
BURLINGTON     CLEAR     58  50  75 S9        29.95S
WRAY           CLEAR     58  47  67 SW3       29.94R
STERLING       MOCLDY    63  52  67 CALM      29.95R
HOLYOKE        CLEAR     55  50  82 CALM      29.94R
FORT MORGAN    MOCLDY    62  52  70 N10       29.99R
$$

COZ086-089-092>099-311300-
...SOUTHEAST COLORADO...

CITY           SKY/WX    TMP DP  RH WIND       PRES   REMARKS
PUEBLO         PTCLDY    64  50  60 N7        30.00R
LA JUNTA       CLEAR     60  51  72 W6        29.94R
LAMAR          CLEAR     54  51  90 CALM      29.91R FOG
SPRINGFIELD    NOT AVBL
$$




USA.gov is the U.S. government's official web portal to all federal, state and local government web resources and services.